www.pogodaiklimat.ru

Погода и климат >> Архив погоды >> Россия >> Самарская область >> Самара


АРХИВ ПОГОДЫ в Самаре

Время (UTC), дата Ветер
(напр.,м/с)
 
Видим.   Явления Облачность Т
(С)
Тd
(С)
f
(%)
Тe
(С)
Тes
(С)
Комфортность P
(гПа)
Po
(гПа)
Тmin
(С)
Tmax
(С)
R
(мм)
R24
(мм)
S
(см)
03 19.09 В 1 10 км 3/0
[Ci fib]
+16.3 +7.7 57 +17 +17 1017.0 1000.5 +14.9
06 19.09 ЮЗ 1 10 км 3/0
[Ci fib]
+23.5 +9.3 40 +24 +29 комфорт 1016.7 1000.6
09 19.09 ЮЗ 4-10
{10}
10 км 3/0
[Ci fib]
+28.5 +7.7 27 +28 +33 жарко 1015.9 1000.1
12 19.09 ЮЗ 3
{12}
10 км 1/0
[Ci fib]
+30.1 +4.6 20 +28 +31 жарко 1015.0 999.3
15 19.09 ЮЗ 2 10 км 10/0
[Ci fib]
+27.2 +6.3 26 +26 +26 жарко 1015.0 999.0 +30.1
18 19.09 ЮЗ 2 10 км 10/0
[Ci fib]
+25.0 +6.7 31 +25 +25 комфорт 1015.5 999.5
21 19.09 штиль 0 10 км 10/0
[Ci fib]
+17.3 +8.9 58 +17 +17 1017.1 1000.6
00 20.09 СЗ 1 10 км 10/0
[Ci fib]
+17.1 +9.0 59 +18 +18 1018.7 1002.2
03 20.09 СВ 1 10 км 3/0
[Ci fib]
+14.5 +7.8 64 +15 +15 1019.8 1003.1 +14.5
06 20.09 СЗ 2 10 км 3/0
[Ci fib]
+17.3 +8.6 57 +18 +22 1020.8 1004.3
09 20.09 СЗ 2 10 км 3/0
[Ci fib]
+19.7 +7.0 44 +21 +28 комфорт 1021.1 1004.7
12 20.09 С 1 10 км 1/0
[Ci fib]
+21.2 +5.6 36 +22 +25 комфорт 1021.0 1004.6
15 20.09 С 1 10 км ясно +17.9 +8.1 53 +19 +19 1021.7 1005.2 +21.3
18 20.09 С 1 10 км ясно +14.8 +6.8 59 +15 +15 1022.8 1006.1
21 20.09 СВ 1 10 км ясно +13.5 +7.0 65 +14 +14 1023.3 1006.5
00 21.09 С 1 10 км ясно +12.2 +7.1 71 +12 +12 1024.0 1007.1
03 21.09 СВ 2 10 км 1/0
[Ci fib]
+11.9 +7.8 76 +11 +11 1024.8 1007.9 +10.4
06 21.09 СВ 2 10 км ясно +14.6 +7.1 61 +14 +19 1025.6 1008.9
09 21.09 С 1 10 км 3/0
[Ci fib]
+17.8 +7.3 50 +19 +27 1024.9 1008.3
12 21.09 СВ 2 10 км 3/0
[]
+18.4 +7.2 48 +19 +22 1024.8 1008.3
15 21.09 СВ 2 10 км 3/0
[Ci fib]
+15.7 +7.4 58 +16 +16 1025.2 1008.5 +18.8
18 21.09 С 1 10 км 8/0
[Ac trans]
+12.5 +7.7 73 +13 +13 1026.5 1009.5
21 21.09 С 2 10 км 8/0
[Ac trans Ci fib]
+11.2 +7.7 79 +10 +10 1027.3 1010.3
00 22.09 С 1 10 км 6/0
[Ac trans]
+8.9 +5.1 77 +8 +8 1028.0 1010.9
03 22.09 СВ 2 10 км 8/3 600 м
[Sc Ac trans]
+7.5 +3.2 74 +6 +6 1029.4 1012.1 +7.4
06 22.09 С 2 10 км 8/5 600 м
[Sc Ac trans]
+9.5 +4.5 71 +8 +9 1029.8 1012.6
09 22.09 СВ 3 10 км 8/8 600 м
[Sc]
+12.1 +5.6 64 +11 +12 1029.8 1012.8
12 22.09 СВ 3 10 км 10/8 600 м
[Sc Ac trans]
+12.1 +5.9 66 +11 +11 1031.0 1014.0
15 22.09 СВ 2 10 км 4/3 600 м
[Sc Ac trans]
+11.6 +5.3 65 +11 +11 1032.1 1015.1 +13.6
18 22.09 СВ 2 10 км ясно +9.4 +4.5 71 +8 +8 1033.1 1015.9
21 22.09 СВ 2 10 км ясно +7.4 +2.9 73 +5 +5 1034.1 1016.7
00 23.09 СВ 3 10 км ясно +6.1 +3.4 83 +3 +3 1035.2 1017.7
03 23.09 В 2 10 км ясно +4.9 +2.7 86 +2 +2 1036.2 1018.6 +4.9
06 23.09 В 2 10 км 8/0
[Ac trans]
+8.4 +3.9 73 +7 +9 1036.6 1019.2
09 23.09 В 2 10 км ясно +13.9 +3.3 49 +14 +21 1036.2 1019.2
12 23.09 СВ 2 10 км ясно +15.6 +2.8 42 +16 +18 1034.8 1017.9
15 23.09 СВ 1 10 км ясно +13.0 +3.9 54 +13 +13 1034.3 1017.3 +15.9
18 23.09 штиль 0 10 км ясно +7.6 +4.1 78 +7 +7 1034.4 1017.0
21 23.09 штиль 0 10 км ясно +7.2 +4.7 84 +6 +6 1034.0 1016.6
00 24.09 СЗ 1 10 км 8/0
[Ac trans]
+8.3 +4.6 77 +8 +8 1033.4 1016.1
03 24.09 СВ 1 10 км 8/0
[Ac trans]
+7.9 +4.5 79 +7 +7 1032.9 1015.6 +5.6
06 24.09 В 2 10 км 10/5 600 м
[Sc Ac trans]
+9.4 +4.3 70 +8 +9 1033.0 1015.8
09 24.09 СВ 3 10 км 8/8 600 м
[Sc]
+11.7 +3.1 56 +10 +11 1033.5 1016.4
12 24.09 СВ 2 10 км 8/8 600 м
[Sc]
+11.6 +2.3 53 +11 +11 1034.0 1016.9
15 24.09 СВ 2 10 км 8/8 600 м
[Cb calv]
+7.7 +1.2 63 +6 +6 1035.1 1017.7 +12.0
18 24.09 С 1 н/о н/о +6.1 +2.3 77 +5 +5 1035.5 1018.0
21 24.09 СВ 2 10 км ясно +5.1 +2.5 83 +3 +3 1035.5 1018.0
00 25.09 СВ 1 10 км ясно +3.9 +2.0 87 +2 +2 1035.4 1017.7
03 25.09 СЗ 1 10 км 9/9 600 м
[Sc]
+4.1 +2.2 87 +3 +3 1035.1 1017.5 +3.7
06 25.09 С 1 10 км 10/8 600 м
[Sc Ac trans]
+6.7 +2.9 77 +6 +6 1034.8 1017.3
09 25.09 С 2 10 км 10/8 600 м
[Sc Ac trans]
+8.2 +3.0 70 +6 +7 1033.9 1016.6
12 25.09 С 1 10 км 10/8 600 м
[Sc Ac trans]
+8.3 +3.2 70 +8 +8 1032.9 1015.6
15 25.09 С 1 10 км слабый дождь 10/10 600 м
[Sc]
+6.3 +3.7 83 +5 +5 1032.7 1015.3 +8.9 0.0
18 25.09 С 2 10 км {дождь} 10/10 600 м
[Sc]
+6.7 +3.4 79 +5 +5 1032.2 1014.8
21 25.09 С 1 10 км 10/8 600 м
[Sc Ac trans]
+6.1 +3.0 80 +5 +5 1031.8 1014.4
00 26.09 СВ 1 10 км 10/8 600 м
[Sc Ac trans]
+5.7 +3.0 83 +5 +5 1031.2 1013.8

 

Местоположение метеостанции Самара (Самарская область, Россия): широта 53.25 долгота 50.22 высота над уровнем моря 139 м.

В архиве по умолчанию представлена погода в Самаре за последнюю неделю. Архивные данные за месяц целиком и за предыдущие месяцы, начиная с января 2011 года, Вы можете получить, выбрав интересующий диапазон дат из раскрывающегося списка и нажав кнопку "Ввод!".

Внимание! Время в таблицах - всемирное. Для получения местного времени необходимо прибавить поправку, которая в Самаре равна 4 ч.

Смотрите также архив погоды в соседних городах и на ближайших метеорологических станциях:

Погода в Самаре-Центр (Самарская область, Россия) (8 км)
Погода в Курумоче (Самарская область, Россия) (28 км)
Погода в Аглосе (Самарская область, Россия) (32 км)
Погода в Безенчуке (Самарская область, Россия) (61 км)
Погода в Тольятти (Самарская область, Россия) (69 км)
Погода в Кинель-Черкассах (Самарская область, Россия) (94 км)
Погода в Большая Глушица (Самарская область, Россия) (98 км)
Погода в Авангарде Зерносовхозе (Самарская область, Россия) (100 км)
Погода в Новодевичьем (Самарская область, Россия) (100 км)
Погода в Серноводске (Самарская область, Россия) (102 км)

Пояснения к столбцам:

Ветер - указаны скорость ветра в м/с - средняя за 10 мин, порывы в срок и между сроками (в фигурных скобках) и направление, откуда дует ветер: С - северный, СВ - северо-восточный, В - восточный, ЮВ - юго-восточный, Ю - южный, ЮЗ - юго-западный, З - западный, СЗ - северо-западный.
Видимость - горизонтальная дальность видимости в метрах или километрах. При видимости от 1 до 10 км при отсутствии осадков обычно наблюдается дымка, при ухудшении видимости до 1 км и менее - туман. В сухую погоду видимость может ухудшаться дымом, пылью или мглою.
Явления - указаны атмосферные явления, наблюдавшиеся в срок или в последний час перед сроком; фигурными скобками обозначены явления, наблюдавшиеся между сроками (за 1-3 часа до срока); квадратными скобками обозначены град или гололедные отложения с указанием их диаметра в мм.
Облачность - указаны через наклонную черту общая и нижняя облачность в баллах и высота нижней границы облаков в метрах; квадратными скобками обозначены формы облаков: Ci - перистые, Cs - перисто-слоистые, Cc - перисто-кучевые, Ac - высококучевые, As - высокослоистые, Sc - слоисто-кучевые, Ns - слоисто-дождевые, Cu - кучевые, Cb - кучево-дождевые. Подробнее классификацию облаков см. в Атласе облаков (PDF).
T - Температура воздуха - температура, измеренная на высоте 2 м над землей.
Td - Температура точки росы - температура, при понижении до которой содержащийся в воздухе водяной пар достигнет насыщения.
f - Относительная влажность воздуха - влажноcть воздуха, измеренная на высоте 2 м над землей.
Te - Эффективная температура - температура, которую ощущает одетый по сезону человек в тени. Характеристика душности погоды. При расчете учитывается влияние влажности воздуха и скорости ветра на теплоощущения человека.
Tes - Эффективная температура на солнце - температура, которую ощущает человек, с поправкой на солнечный нагрев. Характеристика знойности погоды. Зависит от высоты солнца над горизонтом, облачности и скорости ветра. Ночью, в пасмурную погоду, а также при ветре 12 м/с и более поправка равна нулю.
P - Атмосферное давление - приведенное к уровню моря атмосферное давление.
Po - Атмосферное давление - измеренное на уровне метеостанции атмосферное давление.
Tmin - Минимальная температура - минимум температуры воздуха на высоте 2 м над землей.
Tmax - Максимальная температура - максимум температуры воздуха на высоте 2 м над землей.
R - Количество осадков - Количество выпавших осадков за период времени, мм. При наведении курсора мыши на число - период времени, за который выпало указанное количество осадков.
R24 - Количество осадков - Количество выпавших осадков за 24 часа, мм.
S - Снежный покров - Высота снежного покрова, см. При наведении курсора мыши на число - состояние снежного покрова и степень покрытия местности в баллах.